Weather History for Ludington, MI

Change the Weather History Date:

Monday, December 31, 2012

  Actual Average Record
Temperature  
Mean Temperature 30 °F -  
Max Temperature 37 °F 29 °F 50 °F (2004)
Min Temperature 22 °F 18 °F -14 °F (1976)
Degree Days  
Heating Degree Days 35    
Moisture  
Dew Point 22 °F    
Average Humidity 68    
Maximum Humidity 83    
Minimum Humidity 59    
Precipitation  
Precipitation 0.01 in - - ()
Sea Level Pressure  
Sea Level Pressure 29.97 in    
Wind  
Wind Speed 13 mph (WNW)    
Max Wind Speed 24 mph    
Max Gust Speed 30 mph    
Visibility 10 miles    
Events Snow    
Averages and records for this station are not official NWS values.
T = Trace of Precipitation, MM = Missing Value Source: NWS Daily Summary

Daily Weather History Graph

Daily Weather History Graph

Search for Another Location

Airport:

Trip Planner

Search our weather history database for the weather conditions in past years. The results will help you decide how hot, cold, wet, or windy it might be!

Date:

Astronomy

Dec. 31, 2012 Rise Set
Actual Time 8:20 AM EST 5:17 PM EST
Civil Twilight 7:47 AM EST 5:50 PM EST
Nautical Twilight 7:10 AM EST 6:27 PM EST
Astronomical Twilight 6:35 AM EST 7:02 PM EST
Moon 8:55 PM EST (12/31) 9:54 AM EST (12/31)
Length of Visible Light 10h 03m
Length of Day
8h 57m
Waning Gibbous, 90% of the Moon is Illuminated
Dec 31
Waning Gibbous
Jan 4
Last Quarter
Jan 11
New
Jan 18
First Quarter
Jan 26
Full

Hourly Weather History & Observations

Time (EST) Temp. Windchill Dew Point Humidity Pressure Visibility Wind Dir Wind Speed Gust Speed Precip Events Conditions
12:15 AM 30.0 °F 20.5 °F 23.5 °F 77% 30.01 in 10.0 mi South 11.5 mph 19.6 mph N/A   Mostly Cloudy
12:35 AM 34.9 °F 27.1 °F 30.2 °F 83% 29.99 in 10.0 mi South 10.4 mph 20.7 mph N/A   Clear
1:15 AM 37.6 °F 27.4 °F 28.0 °F 68% 29.95 in 10.0 mi SW 19.6 mph 25.3 mph 0.01 in   Clear
1:35 AM 37.6 °F 27.1 °F 28.0 °F 68% 29.94 in 10.0 mi SW 20.7 mph 29.9 mph 0.01 in   Clear
1:55 AM 37.6 °F 28.4 °F 28.4 °F 69% 29.94 in 10.0 mi SW 16.1 mph 26.5 mph 0.01 in   Clear
2:15 AM 37.9 °F 27.9 °F 27.3 °F 66% 29.94 in 10.0 mi SW 19.6 mph 26.5 mph N/A   Clear
2:35 AM 37.6 °F 27.1 °F 27.3 °F 66% 29.93 in 10.0 mi SW 20.7 mph 27.6 mph N/A   Clear
2:55 AM 37.6 °F 26.9 °F 27.3 °F 66% 29.93 in 10.0 mi WSW 21.9 mph 27.6 mph N/A   Scattered Clouds
3:15 AM 37.6 °F 26.3 °F 27.1 °F 66% 29.92 in 10.0 mi WSW 24.2 mph 29.9 mph N/A   Mostly Cloudy
3:35 AM 37.6 °F 27.1 °F 27.5 °F 67% 29.92 in 10.0 mi WSW 20.7 mph 28.8 mph N/A   Overcast
3:54 AM 37.6 °F 26.9 °F 27.1 °F 66% 29.90 in 10.0 mi WSW 21.9 mph 28.8 mph N/A   Scattered Clouds
4:15 AM 37.6 °F 28.4 °F 27.1 °F 66% 29.90 in 10.0 mi WSW 16.1 mph 24.2 mph N/A   Clear
4:34 AM 37.6 °F 27.7 °F 27.1 °F 66% 29.90 in 10.0 mi WSW 18.4 mph 27.6 mph N/A   Clear
4:55 AM 37.6 °F 28.1 °F 27.1 °F 66% 29.90 in 10.0 mi WSW 17.3 mph 29.9 mph N/A   Scattered Clouds
5:15 AM 37.6 °F 28.1 °F 26.2 °F 64% 29.90 in 10.0 mi West 17.3 mph 26.5 mph N/A   Mostly Cloudy
5:34 AM 37.6 °F 28.4 °F 26.2 °F 64% 29.90 in 10.0 mi West 16.1 mph 25.3 mph N/A   Overcast
5:55 AM 37.6 °F 30.0 °F 27.0 °F 66% 29.90 in 10.0 mi West 11.5 mph 20.7 mph N/A   Overcast
6:15 AM 37.6 °F 31.0 °F 27.3 °F 66% 29.90 in 10.0 mi West 9.2 mph 19.6 mph N/A   Overcast
6:34 AM 36.5 °F 28.2 °F 25.7 °F 65% 29.90 in 10.0 mi West 12.7 mph 24.2 mph N/A   Overcast
7:14 AM 35.1 °F 26.9 °F 25.3 °F 68% 29.91 in 10.0 mi West 11.5 mph 19.6 mph N/A   Overcast
7:35 AM 35.1 °F 27.4 °F 25.3 °F 68% 29.91 in 10.0 mi West 10.4 mph 17.3 mph N/A   Overcast
7:55 AM 35.1 °F 27.4 °F 25.7 °F 69% 29.92 in 10.0 mi West 10.4 mph 20.7 mph N/A   Overcast
8:14 AM 35.1 °F 26.4 °F 26.1 °F 70% 29.92 in 10.0 mi West 12.7 mph 20.7 mph N/A   Overcast
8:35 AM 35.1 °F 27.4 °F 26.6 °F 71% 29.92 in 10.0 mi West 10.4 mph 18.4 mph N/A   Overcast
8:55 AM 34.9 °F 28.3 °F 26.6 °F 72% 29.92 in 10.0 mi West 8.1 mph 17.3 mph N/A   Overcast
9:14 AM 32.9 °F 25.9 °F 25.0 °F 73% 29.92 in 10.0 mi West 8.1 mph 16.1 mph N/A   Overcast
9:35 AM 32.5 °F 24.2 °F 24.6 °F 73% 29.92 in 10.0 mi West 10.4 mph 17.3 mph N/A   Overcast
9:55 AM 32.5 °F 23.2 °F 24.8 °F 73% 29.93 in 10.0 mi WNW 12.7 mph 19.6 mph N/A   Overcast
10:15 AM 31.3 °F 21.6 °F 23.7 °F 74% 29.94 in 10.0 mi WNW 12.7 mph 19.6 mph N/A   Overcast
10:35 AM 30.2 °F 20.8 °F 22.8 °F 74% 29.95 in 7.0 mi WNW 11.5 mph 17.3 mph N/A   Overcast
10:55 AM 30.2 °F 21.3 °F 22.8 °F 74% 29.96 in 7.0 mi WNW 10.4 mph 16.1 mph N/A   Overcast
11:15 AM 30.2 °F 22.6 °F 23.0 °F 75% 29.96 in 7.0 mi NW 8.1 mph 18.4 mph N/A   Overcast
11:35 AM 30.2 °F 23.4 °F 23.0 °F 75% 29.96 in 7.0 mi WNW 6.9 mph - N/A   Overcast
11:54 AM 30.2 °F 22.6 °F 23.0 °F 75% 29.96 in 7.0 mi NW 8.1 mph 16.1 mph N/A   Overcast
12:15 PM 30.2 °F 21.3 °F 22.8 °F 74% 29.95 in 7.0 mi NNW 10.4 mph - N/A   Overcast
12:35 PM 30.2 °F 21.9 °F 22.6 °F 73% 29.95 in 7.0 mi NW 9.2 mph - N/A   Overcast
12:55 PM 30.2 °F 22.6 °F 22.8 °F 74% 29.94 in 7.0 mi NW 8.1 mph - N/A   Overcast
1:15 PM 30.2 °F 21.3 °F 23.0 °F 75% 29.93 in 10.0 mi NW 10.4 mph - N/A   Overcast
1:35 PM 30.2 °F 23.4 °F 22.8 °F 74% 29.92 in 10.0 mi NW 6.9 mph 17.3 mph N/A   Overcast
1:55 PM 30.2 °F 21.9 °F 22.5 °F 73% 29.93 in 10.0 mi NW 9.2 mph - N/A   Overcast
2:15 PM 30.2 °F 21.9 °F 21.4 °F 70% 29.94 in 10.0 mi NW 9.2 mph 16.1 mph N/A   Overcast
2:35 PM 30.2 °F 21.3 °F 21.4 °F 70% 29.94 in 10.0 mi NNW 10.4 mph - N/A   Overcast
2:55 PM 30.2 °F 22.6 °F 21.0 °F 69% 29.95 in 10.0 mi NW 8.1 mph - N/A   Overcast
3:15 PM 30.2 °F 22.6 °F 21.4 °F 70% 29.95 in 10.0 mi NW 8.1 mph - N/A   Overcast
3:35 PM 29.1 °F 18.4 °F 20.3 °F 70% 29.97 in 10.0 mi NW 13.8 mph 18.4 mph N/A   Overcast
3:55 PM 27.9 °F 19.1 °F 18.1 °F 67% 29.98 in 10.0 mi NNW 9.2 mph 16.1 mph N/A   Overcast
4:15 PM 27.9 °F 20.6 °F 17.6 °F 65% 29.99 in 10.0 mi NNW 6.9 mph 17.3 mph N/A   Overcast
4:35 PM 27.9 °F 19.8 °F 17.4 °F 65% 29.99 in 10.0 mi NNW 8.1 mph - N/A   Overcast
4:55 PM 27.9 °F 19.8 °F 18.0 °F 66% 30.00 in 10.0 mi NNW 8.1 mph - N/A   Overcast
5:15 PM 26.6 °F 17.5 °F 16.2 °F 65% 30.00 in 10.0 mi NNW 9.2 mph - N/A   Overcast
5:34 PM 26.6 °F 18.2 °F 15.6 °F 63% 30.01 in 10.0 mi NW 8.1 mph 17.3 mph N/A   Overcast
5:55 PM 26.6 °F 18.2 °F 16.2 °F 65% 30.01 in 10.0 mi NW 8.1 mph - N/A   Overcast
6:15 PM 27.9 °F 19.8 °F 17.2 °F 64% 30.01 in 10.0 mi NW 8.1 mph - N/A   Overcast
6:34 PM 27.9 °F 19.8 °F 17.4 °F 65% 30.02 in 10.0 mi NW 8.1 mph - N/A   Overcast
6:55 PM 27.3 °F 19.1 °F 16.0 °F 62% 30.03 in 10.0 mi NNW 8.1 mph - N/A   Overcast
6:59 PM 27.3 °F 20.9 °F 16.0 °F 62% 30.03 in 10.0 mi NW 5.8 mph - N/A   Overcast
7:35 PM 26.6 °F 17.5 °F 14.9 °F 61% 30.04 in 10.0 mi NNW 9.2 mph 16.1 mph N/A   Overcast
7:55 PM 26.6 °F 19.1 °F 14.9 °F 61% 30.03 in 10.0 mi North 6.9 mph - N/A   Overcast
8:15 PM 25.5 °F 14.9 °F 14.0 °F 62% 30.03 in 10.0 mi North 11.5 mph 16.1 mph N/A   Overcast
8:35 PM 25.3 °F 16.7 °F 13.1 °F 60% 30.04 in 10.0 mi North 8.1 mph - N/A   Overcast
8:55 PM 25.3 °F 16.7 °F 12.7 °F 59% 30.04 in 10.0 mi North 8.1 mph - N/A   Overcast
9:15 PM 25.3 °F 16.0 °F 12.9 °F 59% 30.05 in 10.0 mi NNW 9.2 mph - N/A   Overcast
9:35 PM 25.3 °F 17.6 °F 12.7 °F 59% 30.05 in 10.0 mi North 6.9 mph - N/A   Overcast
9:55 PM 25.3 °F 15.3 °F 13.5 °F 61% 30.05 in 10.0 mi NNW 10.4 mph 17.3 mph N/A   Overcast
10:15 PM 25.3 °F 15.3 °F 13.3 °F 60% 30.05 in 10.0 mi North 10.4 mph 16.1 mph N/A   Overcast
10:35 PM 24.6 °F 13.8 °F 13.1 °F 62% 30.06 in 10.0 mi NNW 11.5 mph 17.3 mph N/A   Overcast
11:15 PM 23.4 °F 13.5 °F 12.7 °F 64% 30.06 in 10.0 mi North 9.2 mph - N/A Snow Light Snow
11:35 PM 23.0 °F 11.1 °F 12.4 °F 64% 30.07 in 10.0 mi North 12.7 mph 16.1 mph N/A   Overcast
11:55 PM 22.8 °F 13.6 °F 12.9 °F 66% 30.07 in 10.0 mi North 8.1 mph - N/A Snow Light Snow